SCP
1 1 1 1 1 1 1 1 1 1 1 1 1 1 0 0 0 0 0 0 0 0 0 0 0 0 0 0 0 0 0 0 0 0 0 0 0 0 0 0 0 0 0
1 1 1 1 1 1 1 1 1 1 1 1 1 0 0 0 0 0 0 0 0 0 0 0 0 0 0 0 0 0 0 0 0 0 0 0 0 0 0 0 0 0 0
1 1 1 1 1 1 1 1 1 1 1 0 0 0 0 0 0 0 0 0 0 0 0 0 0 0 0 0 0 0 0 0 0 0 0 0 0 0 0 0 0 0 0
1 1 1 1 1 1 1 1 0 0 0 0 0 0 0 0 0 0 0 0 0 0 0 0 0 0 0 0 0 0 0 0 0 0 0 0 0 0 0 0 0 0 0
1 1 1 1 1 1 0 0 0 0 0 0 0 0 0 0 0 0 0 0 0 0 0 0 0 0 0 0 0 0 0 0 0 0 0 0 0 0 0 0 0 0 0
1 1 0 0 0 0 0 0 0 0 0 0 0 0 0 0 0 0 0 0 0 0 0 0 0 0 0 0 0 0 0 0 0 0 0 0 0 0 0 0 0 0 0
0 0 0 0 0 0 0 0 0 0 0 0 0 0 0 0 0 0 0 0 0 0 0 0 0 0 0 0 0 0 0 0 0 0 0 0 0 0 0 0 0 0 0
0 0 0 0 0 0 0 0 0 0 0 0 0 0 0 0 0 0 0 0 0 0 0 0 0 0 0 0 0 0 0 0 0 0 0 0 0 0 0 0 0 0 0
0 0 0 0 0 0 0 0 0 0 0 0 0 0 0 0 0 0 0 0 0 0 0 0 0 0 0 0 0 0 0 0 0 0 0 0 0 0 0 0 0 0 0
0 0 0 0 0 0 0 0 0 0 0 0 0 0 0 0 0 0 0 0 0 0 0 0 0 0 0 0 0 0 0 0 0 0 0 0 0 0 0 0 0 0 0
0 0 0 0 0 0 0 0 0 0 0 0 0 0 0 0 0 0 0 0 0 0 0 0 0 0 0 0 0 0 0 0 0 0 0 0 0 0 0 0 0 0 0
0 0 0 0 0 0 0 0 0 0 0 0 0 0 0 0 0 0 0 0 0 0 0 0 0 0 0 0 0 0 0 0 0 0 0 0 0 0 0 0 0 0 0
0 0 0 0 0 0 0 0 0 0 0 0 0 0 0 0 0 0 0 0 0 0 0 0 0 0 0 0 0 0 0 0 0 0 0 0 0 0 0 0 0 0 0
0 0 0 0 0 0 0 0 0 0 0 0 0 0 0 0 0 0 0 0 0 0 0 0 0 0 0 0 0 0 0 0 0 0 0 0 0 0 0 0 0 0 0
0 0 0 0 0 0 0 0 0 0 0 0 0 0 0 0 0 0 0 0 0 0 0 0 0 0 0 0 0 0 0 0 0 0 0 0 0 0 0 0 0 0 0
0 0 0 0 0 0 0 0 0 0 0 0 0 0 0 0 0 0 0 0 0 0 0 0 0 0 0 0 0 0 0 0 0 0 0 0 0 0 0 0 0 0 0
0 0 0 0 0 0 0 0 0 0 0 0 0 0 0 0 0 0 0 0 0 0 0 0 0 0 0 0 0 0 0 0 0 0 0 0 0 0 0 0 0 0 0
0 0 0 0 0 0 0 0 0 0 0 0 0 0 0 0 0 0 0 0 0 0 0 0 0 0 0 0 0 0 0 0 0 0 0 0 0 0 0 0 0 0 0
0 0 0 0 0 0 0 0 0 0 0 0 0 0 0 0 0 0 0 0 0 0 0 0 0 0 0 0 0 0 0 0 0 0 0 0 0 0 0 0 0 0 0
0 0 0 0 0 0 0 0 0 0 0 0 0 0 0 0 0 0 0 0 0 0 0 0 0 0 0 0 0 0 0 0 0 0 0 0 0 0 0 0 0 0 0
0 0 0 0 0 0 0 0 0 0 0 0 0 0 0 0 0 0 0 0 0 0 0 0 0 0 0 0 0 0 0 0 0 0 0 0 0 0 0 0 0 0 0
0 0 0 0 0 0 0 0 0 0 0 0 0 0 0 0 0 0 0 0 0 0 0 0 0 0 0 0 0 0 0 0 0 0 0 0 0 0 0 0 0 0 0
0 0 0 0 0 0 0 0 0 0 0 0 0 0 0 0 0 0 0 0 0 0 0 0 0 0 0 0 0 0 0 0 0 0 0 0 0 0 0 0 0 0 0
0 0 0 0 0 0 0 0 0 0 0 0 0 0 0 0 0 0 0 0 0 0 0 0 0 0 0 0 0 0 0 0 0 0 0 0 0 0 0 0 0 0 0
0 0 0 0 0 0 0 0 0 0 0 0 0 0 0 0 0 0 0 0 0 0 0 0 0 0 0 0 0 0 0 0 0 0 0 0 0 0 0 0 0 0 0
0 0 0 0 0 0 0 0 0 0 0 0 0 0 0 0 0 0 0 0 0 0 0 0 0 0 0 0 0 0 0 0 0 0 0 0 0 0 0 0 0 0 0
Wind_Speed
1 2 2 2 3 3 3 3 3 3 3 4 3 3 3 3 2 2 3 3 4 3 4 4 5 4 3 3 3 3 3 3 4 4 3 3 4 3 3 3 4 5 6
1 1 2 2 3 2 3 3 3 3 3 3 3 3 4 3 2 2 3 3 4 4 5 4 5 4 4 3 3 3 3 4 4 5 3 3 3 4 4 4 4 4 4
2 1 1 2 2 3 3 3 3 3 3 3 3 3 4 3 2 2 3 3 4 5 4 5 5 5 5 4 4 4 4 4 3 3 4 3 3 3 3 4 4 3 4
3 2 2 2 2 2 3 3 3 4 3 3 3 3 3 3 3 3 3 3 4 4 4 4 5 5 6 5 4 4 4 4 3 3 4 4 3 3 3 3 2 2 3
3 2 2 2 2 2 3 3 3 4 4 3 3 3 3 3 4 3 2 4 4 4 4 4 4 5 6 5 5 4 4 3 3 3 4 3 3 3 3 3 3 3 3
3 3 3 2 2 2 3 3 3 4 4 3 4 4 4 4 2 3 3 3 4 4 3 3 4 4 5 6 7 7 6 5 5 4 4 4 5 4 3 3 3 3 3
3 3 3 3 3 3 4 4 3 4 4 4 4 4 3 2 3 4 5 4 4 4 4 4 5 4 4 3 5 6 7 9 9 6 6 5 5 4 4 4 4 4 4
4 4 4 4 4 3 3 4 4 4 4 4 4 4 3 4 4 5 6 5 5 4 5 5 4 4 5 4 4 4 5 5 7 7 6 6 6 4 5 5 5 4 3
5 5 5 4 4 4 4 4 4 4 4 4 4 4 4 4 4 5 4 3 4 4 5 5 4 4 4 4 3 4 4 4 4 6 7 7 6 6 4 3 3 3 3
5 5 4 4 3 4 4 4 4 4 4 5 5 4 4 3 3 3 4 3 3 3 3 3 4 3 2 3 3 3 4 3 3 2 2 4 4 5 7 6 5 4 3
6 5 4 4 3 4 3 3 4 4 5 5 5 4 3 3 2 3 4 3 3 3 3 2 1 1 2 3 3 3 4 3 3 3 3 3 3 3 3 4 4 4 3
5 5 5 4 5 4 3 3 4 4 5 5 4 3 2 1 1 2 3 3 4 3 3 2 1 1 2 3 3 4 5 3 3 3 3 3 2 2 2 2 3 3 3
5 5 5 5 4 4 3 4 4 3 3 4 3 3 2 1 1 2 2 3 4 2 2 3 4 4 3 3 5 6 4 3 3 3 3 2 2 2 1 1 2 2 3
5 5 4 4 4 4 3 4 3 3 3 3 3 3 3 2 1 1 1 1 2 2 2 3 4 5 5 4 4 4 4 4 3 3 2 1 1 1 2 1 2 1 2
6 6 5 5 5 3 3 3 3 2 2 3 3 3 3 3 3 3 2 2 2 2 2 3 2 2 2 2 3 3 3 2 2 2 2 1 1 1 2 2 2 2 2
6 6 6 6 4 4 3 3 3 4 4 4 4 4 4 4 6 5 4 3 3 2 1 3 3 3 3 2 2 2 2 2 2 2 2 1 1 1 1 1 1 2 2
6 6 6 6 6 4 4 3 3 3 5 5 6 6 7 7 7 6 4 4 4 2 2 3 3 3 3 2 2 2 1 1 1 1 1 1 1 1 1 2 2 1 1
6 7 7 6 6 5 5 4 4 3 3 2 4 6 7 7 7 6 3 2 3 2 3 3 3 2 2 1 1 0 1 1 1 1 1 1 1 1 1 2 2 2 2
7 6 5 6 6 6 5 5 4 4 2 2 1 2 3 4 4 4 3 2 3 3 3 3 3 2 1 1 1 1 1 1 0 0 0 1 1 1 2 2 1 2 1
5 7 7 7 7 6 5 5 5 4 3 3 2 1 1 0 1 1 2 3 3 3 3 2 2 1 1 1 1 1 1 1 1 1 1 1 1 1 1 2 2 2 1
6 6 7 7 6 5 5 5 5 4 4 3 2 1 1 2 2 2 2 2 2 3 2 2 1 1 2 2 1 1 1 1 0 0 1 1 1 1 1 1 2 1 1
7 6 5 5 5 4 5 5 5 4 4 4 3 2 2 2 3 2 2 2 1 1 1 1 1 2 2 2 2 1 0 0 0 1 1 1 1 1 2 1 1 1 0
7 7 6 5 4 5 5 5 5 4 4 4 4 4 3 2 2 2 2 2 1 1 1 1 1 1 1 1 1 1 1 1 1 1 1 1 1 2 1 1 1 0 0
8 7 6 5 4 4 5 5 4 4 4 4 4 3 3 3 2 2 2 2 2 2 1 1 1 1 2 2 1 2 3 2 2 1 2 2 2 2 1 1 1 1 0
7 6 5 4 4 4 5 5 4 4 3 3 3 3 3 3 3 2 2 1 1 1 2 2 2 2 3 4 4 3 4 3 3 2 2 2 2 2 2 2 1 1 1
7 6 5 4 4 4 4 4 5 4 3 2 3 3 3 3 3 2 2 2 2 1 1 1 2 3 4 4 4 3 2 2 2 3 2 2 2 2 2 1 2 1 1
Wind_Direction
288 285 303 292 286 286 289 293 292 296 303 300 291 285 281 275 275 264 267 253 239 231 229 224 226 232 237 245 248 255 254 239 244 252 228 214 207 216 200 196 193 192 200
297 283 299 302 306 303 299 307 309 298 291 286 279 283 282 281 273 257 255 258 247 238 232 227 229 232 226 235 238 249 257 245 230 240 239 228 224 210 199 206 210 209 200
331 322 309 307 312 308 314 313 303 294 289 284 273 276 282 279 266 260 254 255 254 247 236 231 233 232 238 237 238 242 247 250 235 237 240 229 223 223 211 220 217 212 218
353 350 341 321 305 302 312 306 302 296 290 284 266 263 266 266 263 261 255 256 254 254 247 239 238 232 232 235 238 237 243 248 240 242 237 230 221 217 209 210 223 218 228
353 344 333 313 297 303 304 302 300 294 288 286 276 270 266 258 252 254 258 259 256 257 253 245 245 237 236 233 240 235 237 243 248 247 242 233 227 211 216 211 224 232 235
346 333 326 316 307 308 300 298 303 299 296 286 278 274 269 269 249 248 255 262 271 267 263 257 251 234 233 229 238 239 236 235 243 244 249 237 234 226 224 222 218 230 246
339 338 334 326 329 327 317 322 316 308 303 297 291 283 276 276 250 245 241 246 257 261 263 258 260 256 240 235 236 236 242 245 236 236 244 248 244 230 220 226 227 228 239
341 338 334 332 336 332 325 322 313 306 302 295 290 284 276 279 266 259 248 240 247 250 252 254 256 254 253 246 245 245 245 244 232 229 235 241 244 238 224 225 225 232 237
341 337 339 336 332 329 323 314 307 306 304 298 294 288 280 279 261 256 243 244 247 249 247 250 247 244 250 237 236 244 259 266 256 236 225 229 239 244 235 227 222 217 237
336 330 331 330 327 321 309 306 309 305 301 298 298 295 289 282 264 248 237 251 255 257 256 248 246 248 230 216 223 241 254 265 272 276 256 236 234 242 232 217 221 219 226
326 324 327 329 319 305 305 311 308 305 301 295 293 289 284 278 246 241 235 255 277 281 278 275 277 243 237 235 231 236 241 251 259 254 247 242 235 231 224 216 216 212 207
324 324 324 317 308 308 306 300 294 295 300 297 294 297 298 301 294 231 230 252 278 283 284 287 307 340 274 261 252 247 250 252 241 242 245 244 231 225 221 203 198 200 194
316 316 313 306 296 291 287 290 294 295 300 306 308 309 308 300 300 257 246 271 284 283 296 302 307 291 281 259 241 245 245 237 236 233 239 241 235 218 202 188 191 192 212
315 310 303 298 293 285 286 289 294 306 308 315 326 329 329 322 332 323 300 287 290 286 300 310 293 270 266 263 261 238 231 229 226 231 230 219 202 201 208 204 197 197 215
325 315 308 300 292 282 278 290 296 302 300 295 314 321 322 322 319 314 295 290 294 300 307 291 285 276 259 249 247 243 227 220 220 230 225 214 200 205 218 211 202 205 220
318 315 308 300 292 287 280 282 287 271 273 269 263 271 291 282 283 288 291 290 274 259 277 276 272 263 263 265 263 256 240 221 216 207 204 210 207 212 229 230 217 214 231
315 311 307 305 301 296 295 289 280 274 266 265 268 269 261 272 281 290 303 312 290 245 243 261 261 261 260 252 249 247 260 250 202 196 197 207 217 220 223 229 229 223 233
308 306 306 306 306 308 308 300 286 271 269 269 257 254 252 255 263 271 283 318 296 255 252 263 272 271 268 261 259 249 256 249 221 210 189 185 224 244 240 241 237 229 232
305 306 309 308 304 301 301 299 298 295 295 288 277 264 244 253 260 255 226 242 267 275 271 268 271 280 291 295 296 266 245 243 239 234 242 223 224 238 254 257 250 241 245
296 304 305 303 304 306 309 310 313 312 307 293 282 300 328 291 271 245 230 252 269 278 281 284 293 317 313 294 276 269 251 227 226 247 263 237 218 229 242 248 254 245 228
306 308 305 305 305 316 320 317 315 314 312 313 319 323 294 276 277 261 241 253 268 283 292 303 301 290 290 289 286 267 254 251 216 294 301 277 259 248 241 238 249 248 232
308 306 307 306 311 319 320 316 315 317 325 337 336 322 291 289 306 312 308 302 287 276 283 293 305 308 297 292 295 288 325 338 17 3 293 284 285 274 256 250 247 235 244
295 300 303 309 318 322 309 311 319 324 332 334 324 327 333 319 313 318 329 334 0 3 346 356 307 313 319 4 10 2 1 353 348 340 318 307 308 302 300 289 287 278 224
298 302 305 311 315 316 315 318 317 317 322 321 328 341 342 334 332 344 351 357 356 358 10 352 326 348 357 30 24 13 25 17 7 1 338 316 311 307 297 292 299 308 331
297 302 305 308 314 315 313 318 320 316 316 325 334 340 341 340 342 343 352 359 1 357 357 357 8 21 39 40 29 39 45 38 28 359 331 309 297 295 286 279 281 289 281
301 308 312 318 320 319 322 324 319 315 321 335 335 338 336 333 336 351 2 358 357 357 5 17 16 30 44 47 51 61 62 37 19 357 313 281 281 294 308 298 290 276 276